Time,TemperatureF,DewpointF,PressureIn,WindDirection,WindDirectionDegrees,WindSpeedMPH,WindSpeedGustMPH,Humidity,HourlyPrecipIn,Conditions,Clouds,dailyrainin,SoftwareType,DateUTC
2013-06-24 00:12:00,70.0,68.0,-100.00,SSE,160,1.0,5.0,94,0.00,,,-99.99,,2013-06-24 05:12:00,
2013-06-24 00:35:00,69.0,68.0,-100.00,SSE,150,1.0,4.0,94,0.00,,,-99.99,,2013-06-24 05:35:00,
2013-06-24 00:46:00,69.0,67.0,-100.00,SSE,155,1.0,5.0,94,0.00,,,-99.99,,2013-06-24 05:46:00,
2013-06-24 01:23:00,69.0,68.0,-100.00,South,170,3.0,6.0,94,0.00,,,-99.99,,2013-06-24 06:23:00,
2013-06-24 01:36:00,69.0,68.0,-100.00,South,170,3.0,6.0,94,0.00,,,-99.99,,2013-06-24 06:36:00,
2013-06-24 01:44:00,69.0,67.0,-100.00,SSW,200,3.0,4.0,94,0.00,,,-99.99,,2013-06-24 06:44:00,
2013-06-24 01:52:00,69.0,67.0,-100.00,SSW,200,3.0,4.0,94,0.00,,,-99.99,,2013-06-24 06:52:00,
2013-06-24 02:14:00,69.0,67.0,-100.00,South,180,2.0,5.0,94,0.00,,,-99.99,,2013-06-24 07:14:00,
2013-06-24 02:37:00,69.0,67.0,-100.00,South,180,2.0,5.0,94,0.00,,,-99.99,,2013-06-24 07:37:00,
2013-06-24 02:46:00,68.0,66.0,-100.00,SSE,155,1.0,3.0,94,0.00,,,-99.99,,2013-06-24 07:46:00,
2013-06-24 03:26:00,68.0,66.0,-100.00,SSE,160,1.0,4.0,95,0.00,,,-99.99,,2013-06-24 08:26:00,
2013-06-24 03:35:00,68.0,66.0,-100.00,SSE,160,1.0,4.0,95,0.00,,,-99.99,,2013-06-24 08:35:00,
2013-06-24 03:46:00,69.0,67.0,-100.00,SE,145,6.0,7.0,95,0.00,,,-99.99,,2013-06-24 08:46:00,
2013-06-24 03:52:00,69.0,67.0,-100.00,SE,145,6.0,7.0,95,0.00,,,-99.99,,2013-06-24 08:52:00,
2013-06-24 04:15:00,69.0,67.0,-100.00,South,180,1.0,4.0,95,0.00,,,-99.99,,2013-06-24 09:15:00,
2013-06-24 04:25:00,69.0,67.0,-100.00,South,180,1.0,4.0,95,0.00,,,-99.99,,2013-06-24 09:25:00,
2013-06-24 04:37:00,69.0,67.0,-100.00,South,180,1.0,4.0,95,0.00,,,-99.99,,2013-06-24 09:37:00,
2013-06-24 04:47:00,69.0,67.0,-100.00,SE,140,4.0,6.0,95,0.00,,,-99.99,,2013-06-24 09:47:00,
2013-06-24 05:14:00,69.0,68.0,-100.00,SE,145,6.0,-999.0,94,0.00,,,-99.99,,2013-06-24 10:14:00,
2013-06-24 05:37:00,69.0,68.0,-100.00,SE,145,6.0,14.0,94,0.00,,,-99.99,,2013-06-24 10:37:00,
2013-06-24 05:49:00,69.0,67.0,-100.00,SE,140,6.0,9.0,94,0.00,,,-99.99,,2013-06-24 10:49:00,
2013-06-24 05:58:00,69.0,67.0,-100.00,SSW,200,4.0,7.0,94,0.00,,,-99.99,,2013-06-24 10:58:00,
2013-06-24 06:14:00,69.0,67.0,-100.00,SSW,200,4.0,7.0,94,0.00,,,-99.99,,2013-06-24 11:14:00,
2013-06-24 06:34:00,68.0,67.0,-100.00,SW,220,3.0,4.0,94,0.00,,,-99.99,,2013-06-24 11:34:00,
2013-06-24 06:46:00,68.0,67.0,-100.00,South,175,3.0,7.0,95,0.00,,,-99.99,,2013-06-24 11:46:00,
2013-06-24 07:16:00,68.0,67.0,-100.00,South,180,2.0,7.0,95,0.00,,,-99.99,,2013-06-24 12:16:00,
2013-06-24 07:36:00,69.0,67.0,-100.00,South,180,3.0,6.0,95,0.00,,,-99.99,,2013-06-24 12:36:00,
2013-06-24 07:47:00,69.0,67.0,-100.00,South,190,1.0,4.0,95,0.00,,,-99.99,,2013-06-24 12:47:00,
2013-06-24 07:53:00,69.0,67.0,-100.00,South,190,1.0,4.0,95,0.00,,,-99.99,,2013-06-24 12:53:00,
2013-06-24 08:24:00,69.0,68.0,-100.00,SE,145,4.0,6.0,95,0.00,,,-99.99,,2013-06-24 13:24:00,
2013-06-24 08:36:00,69.0,68.0,-100.00,SE,145,4.0,6.0,95,0.00,,,-99.99,,2013-06-24 13:36:00,
2013-06-24 08:43:00,70.0,69.0,-100.00,SE,135,6.0,11.0,94,0.00,,,-99.99,,2013-06-24 13:43:00,
2013-06-24 08:57:00,70.0,69.0,-100.00,SE,135,6.0,11.0,94,0.00,,,-99.99,,2013-06-24 13:57:00,
2013-06-24 09:36:00,71.0,69.0,-100.00,SE,135,6.0,12.0,92,0.00,,,-99.99,,2013-06-24 14:36:00,
2013-06-24 09:45:00,72.0,69.0,-100.00,SE,135,11.0,17.0,87,0.00,,,-99.99,,2013-06-24 14:45:00,
2013-06-24 10:36:00,73.0,68.0,-100.00,SSE,150,11.0,17.0,85,0.00,,,-99.99,,2013-06-24 15:36:00,
2013-06-24 10:45:00,72.0,68.0,-100.00,SE,135,12.0,19.0,86,0.00,,,-99.99,,2013-06-24 15:45:00,
2013-06-24 10:54:00,72.0,68.0,-100.00,SE,135,9.0,19.0,86,0.00,,,-99.99,,2013-06-24 15:54:00,
2013-06-24 11:15:00,72.0,68.0,-100.00,SE,145,11.0,17.0,86,0.00,,,-99.99,,2013-06-24 16:15:00,
2013-06-24 11:35:00,72.0,68.0,-100.00,SE,140,9.0,17.0,87,0.00,,,-99.99,,2013-06-24 16:35:00,
2013-06-24 11:43:00,71.0,68.0,-100.00,South,170,7.0,13.0,89,0.00,,,-99.99,,2013-06-24 16:43:00,
2013-06-24 11:56:00,71.0,68.0,-100.00,South,185,8.0,12.0,89,0.00,,,-99.99,,2013-06-24 16:56:00,
2013-06-24 12:14:00,71.0,68.0,-100.00,South,170,7.0,21.0,90,0.07,,,-99.99,,2013-06-24 17:14:00,
2013-06-24 12:35:00,71.0,69.0,-100.00,SSW,210,11.0,17.0,92,0.03,,,-99.99,,2013-06-24 17:35:00,
2013-06-24 12:55:00,68.0,66.0,-100.00,SSE,165,5.0,7.0,92,0.01,,,-99.99,,2013-06-24 17:55:00,
2013-06-24 13:25:00,69.0,66.0,-100.00,SSE,150,3.0,8.0,92,0.00,,,-99.99,,2013-06-24 18:25:00,
2013-06-24 13:35:00,69.0,66.0,-100.00,SSE,150,3.0,8.0,92,0.00,,,-99.99,,2013-06-24 18:35:00,
2013-06-24 13:46:00,69.0,67.0,-100.00,West,270,4.0,8.0,93,0.00,,,-99.99,,2013-06-24 18:46:00,
2013-06-24 13:53:00,69.0,67.0,-100.00,WNW,295,4.0,9.0,93,0.00,,,-99.99,,2013-06-24 18:53:00,
2013-06-24 14:36:00,68.0,66.0,-100.00,SW,235,6.0,7.0,92,0.00,,,-99.99,,2013-06-24 19:36:00,
2013-06-24 14:45:00,68.0,66.0,-100.00,SW,235,6.0,7.0,92,0.00,,,-99.99,,2013-06-24 19:45:00,
2013-06-24 14:54:00,68.0,66.0,-100.00,SW,235,6.0,7.0,92,0.00,,,-99.99,,2013-06-24 19:54:00,
2013-06-24 15:12:00,67.0,64.0,-100.00,ESE,105,3.0,7.0,91,0.07,,,-99.99,,2013-06-24 20:12:00,
2013-06-24 15:24:00,67.0,64.0,-100.00,ESE,105,3.0,7.0,91,0.07,,,-99.99,,2013-06-24 20:24:00,
2013-06-24 15:34:00,67.0,64.0,-100.00,ESE,105,3.0,7.0,91,0.07,,,-99.99,,2013-06-24 20:34:00,
2013-06-24 15:45:00,66.0,64.0,-100.00,SW,215,7.0,12.0,92,0.01,,,-99.99,,2013-06-24 20:45:00,
2013-06-24 15:56:00,66.0,64.0,-100.00,SW,215,7.0,12.0,92,0.01,,,-99.99,,2013-06-24 20:56:00,
2013-06-24 16:04:00,66.0,64.0,-100.00,SW,215,7.0,12.0,92,0.01,,,-99.99,,2013-06-24 21:04:00,
2013-06-24 16:13:00,66.0,64.0,-100.00,South,175,4.0,9.0,94,0.00,,,-99.99,,2013-06-24 21:13:00,
2013-06-24 16:25:00,66.0,64.0,-100.00,South,175,4.0,9.0,94,0.00,,,-99.99,,2013-06-24 21:25:00,
2013-06-24 16:37:00,66.0,64.0,-100.00,South,175,4.0,9.0,94,0.00,,,-99.99,,2013-06-24 21:37:00,
2013-06-24 16:46:00,67.0,66.0,-100.00,SSE,150,3.0,7.0,94,0.00,,,-99.99,,2013-06-24 21:46:00,
2013-06-24 16:53:00,67.0,66.0,-100.00,SSE,150,3.0,7.0,94,0.00,,,-99.99,,2013-06-24 21:53:00,
2013-06-24 17:36:00,69.0,66.0,-100.00,SE,145,9.0,12.0,90,0.00,,,-99.99,,2013-06-24 22:36:00,
2013-06-24 17:55:00,71.0,65.0,-100.00,SE,135,5.0,12.0,80,0.00,,,-99.99,,2013-06-24 22:55:00,
2013-06-24 18:26:00,71.0,64.0,-100.00,SE,145,8.0,14.0,79,0.00,,,-99.99,,2013-06-24 23:26:00,
2013-06-24 18:34:00,71.0,64.0,-100.00,SE,145,8.0,14.0,79,0.00,,,-99.99,,2013-06-24 23:34:00,
2013-06-24 18:45:00,71.0,64.0,-100.00,SSE,165,7.0,13.0,79,0.00,,,-99.99,,2013-06-24 23:45:00,
2013-06-24 18:53:00,71.0,64.0,-100.00,South,170,6.0,12.0,79,0.00,,,-99.99,,2013-06-24 23:53:00,
2013-06-24 19:05:00,71.0,64.0,-100.00,South,170,6.0,12.0,79,0.00,,,-99.99,,2013-06-25 00:05:00,
2013-06-24 19:12:00,71.0,64.0,-100.00,South,170,6.0,12.0,80,0.00,,,-99.99,,2013-06-25 00:12:00,
2013-06-24 19:34:00,71.0,65.0,-100.00,South,185,6.0,15.0,81,0.00,,,-99.99,,2013-06-25 00:34:00,
2013-06-24 19:46:00,71.0,65.0,-100.00,SSE,150,7.0,11.0,82,0.00,,,-99.99,,2013-06-25 00:46:00,
2013-06-24 19:54:00,70.0,65.0,-100.00,SSW,200,6.0,12.0,84,0.00,,,-99.99,,2013-06-25 00:54:00,
2013-06-24 20:03:00,70.0,65.0,-100.00,SSW,200,6.0,12.0,84,0.00,,,-99.99,,2013-06-25 01:03:00,
2013-06-24 20:36:00,69.0,65.0,-100.00,SSW,205,4.0,9.0,88,0.00,,,-99.99,,2013-06-25 01:36:00,
2013-06-24 20:44:00,69.0,66.0,-100.00,SW,235,7.0,9.0,89,0.00,,,-99.99,,2013-06-25 01:44:00,
2013-06-24 21:05:00,69.0,66.0,-100.00,SW,215,2.0,6.0,90,0.06,,,-99.99,,2013-06-25 02:05:00,
2013-06-24 21:16:00,67.0,65.0,-100.00,SSE,150,4.0,7.0,93,0.00,,,-99.99,,2013-06-25 02:16:00,
2013-06-24 21:25:00,67.0,65.0,-100.00,SSE,150,4.0,7.0,93,0.00,,,-99.99,,2013-06-25 02:25:00,
2013-06-24 21:36:00,67.0,65.0,-100.00,SSE,150,4.0,7.0,93,0.00,,,-99.99,,2013-06-25 02:36:00,
2013-06-24 21:45:00,68.0,66.0,-100.00,NNW,330,9.0,14.0,94,0.00,,,-99.99,,2013-06-25 02:45:00,
2013-06-24 21:56:00,68.0,66.0,-100.00,NNW,330,9.0,14.0,94,0.00,,,-99.99,,2013-06-25 02:56:00,
2013-06-24 22:06:00,68.0,66.0,-100.00,NNW,330,9.0,14.0,94,0.00,,,-99.99,,2013-06-25 03:06:00,
2013-06-24 22:59:00,66.0,65.0,-100.00,ESE,110,2.0,6.0,94,0.00,,,-99.99,,2013-06-25 03:59:00,
2013-06-24 23:02:00,66.0,65.0,-100.00,ESE,110,2.0,6.0,94,0.00,,,-99.99,,2013-06-25 04:02:00,
2013-06-24 23:22:00,66.0,65.0,-100.00,SE,145,3.0,4.0,94,0.00,,,-99.99,,2013-06-25 04:22:00,
2013-06-24 23:34:00,66.0,65.0,-100.00,SE,145,3.0,4.0,94,0.00,,,-99.99,,2013-06-25 04:34:00,
2013-06-24 23:43:00,66.0,65.0,-100.00,SE,145,6.0,7.0,94,0.00,,,-99.99,,2013-06-25 04:43:00,
2013-06-24 23:52:00,66.0,65.0,-100.00,SE,140,3.0,9.0,94,0.00,,,-99.99,,2013-06-25 04:52:00,